Wind_Speed
3 3 3 3 3 3 4 4 5 4 4 5 5 6 6 6 7 7 7 6 6 6 5 5 5 5 5 4 5 5 5 5 5 4 3 3 3 4 4 4 4 5 4 4
4 4 4 4 3 4 5 5 5 5 4 5 5 5 6 7 7 7 7 7 6 6 6 6 5 5 5 5 5 5 6 5 5 4 4 4 4 4 4 4 4 5 5 4
5 5 5 5 4 4 4 5 5 5 4 5 5 5 5 6 6 6 7 7 7 6 5 5 5 6 5 5 5 6 5 5 5 4 4 4 4 4 5 5 4 4 4 4
7 6 6 6 5 5 5 5 5 6 5 5 5 5 5 6 5 6 6 7 7 6 5 5 6 6 6 6 6 6 6 6 5 4 5 5 4 4 5 5 5 5 4 4
8 7 7 7 7 6 5 6 6 6 6 5 6 5 6 6 6 6 6 7 7 7 6 6 7 7 7 7 7 6 6 6 5 5 6 5 5 5 5 5 5 5 4 4
8 8 8 7 7 6 6 6 7 7 7 7 6 6 6 7 7 7 7 7 8 7 7 7 7 7 7 7 7 7 7 6 6 6 6 6 6 6 6 5 5 5 5 5
8 8 8 8 7 7 6 6 8 8 8 8 7 7 6 7 8 8 7 7 7 8 7 7 7 7 7 7 7 7 7 7 7 7 7 7 7 7 6 6 5 5 5 5
9 9 9 8 8 8 7 7 8 8 8 8 8 7 7 7 7 8 7 7 7 7 7 7 7 7 7 8 7 7 7 7 7 8 8 7 8 8 7 6 6 6 6 6
10 10 10 9 8 8 8 9 9 9 9 9 9 8 7 7 7 8 8 8 7 7 7 7 7 7 7 7 7 7 7 7 8 8 8 8 8 8 7 6 6 6 7 7
11 10 10 10 9 9 9 9 10 10 11 11 10 9 8 8 8 8 8 8 7 7 8 8 8 8 8 7 7 8 8 8 8 9 8 8 8 7 7 7 7 6 7 7
12 11 10 10 10 10 11 11 11 12 12 12 11 10 9 8 8 9 9 9 8 8 8 9 9 9 9 9 9 9 9 9 9 9 9 8 7 7 8 7 7 7 7 7
13 12 12 12 11 11 12 12 12 13 13 12 12 11 10 10 10 10 9 9 9 9 10 9 9 9 10 10 10 10 10 10 10 9 9 8 8 8 8 8 8 7 7 7
15 14 14 13 13 13 13 13 13 13 14 13 13 11 10 11 11 10 9 9 10 10 10 10 10 10 10 10 10 10 11 10 10 10 9 9 9 9 9 9 8 8 7 8
16 16 16 15 15 14 14 13 13 14 14 14 13 11 11 11 11 11 10 9 9 10 10 10 10 10 11 11 11 12 12 12 11 11 11 11 11 11 10 10 9 9 9 9
16 17 17 16 15 15 15 14 14 15 14 14 13 12 12 12 12 12 12 11 11 11 11 11 11 11 12 12 12 12 12 12 12 12 12 12 12 12 11 11 11 11 11 10
17 18 18 17 16 15 15 15 15 15 15 14 14 12 13 13 13 13 13 13 13 13 13 13 13 13 13 13 13 13 13 13 12 11 12 12 13 12 12 12 12 12 12 12
19 19 19 17 17 17 16 15 15 15 15 15 14 13 14 15 15 14 14 14 14 14 15 15 15 14 14 14 14 14 14 13 13 13 12 13 14 14 14 14 14 14 14 13
21 20 20 19 18 18 15 16 16 16 16 15 15 15 15 15 15 15 15 15 15 15 15 15 15 15 15 14 14 14 14 14 14 14 14 14 15 16 16 16 15 15 15 15
22 22 21 21 20 19 17 17 17 17 16 16 16 16 16 16 16 15 16 16 16 16 16 16 16 16 16 15 15 15 15 15 15 15 15 15 16 16 17 17 17 17 16 16
23 23 22 22 22 21 18 18 19 19 18 17 17 17 17 17 17 16 17 17 17 17 17 17 17 17 17 16 15 15 16 16 15 15 15 16 16 16 16 17 17 18 18 17
24 24 23 22 23 22 21 21 21 21 19 19 19 19 19 18 18 18 18 18 18 18 18 18 17 17 17 17 16 16 16 16 16 16 16 16 16 17 17 17 18 18 18 18
25 25 24 24 24 23 22 23 23 22 22 21 21 21 21 20 20 19 20 20 20 19 19 19 19 18 18 18 18 18 18 17 17 17 18 18 17 18 17 18 18 19 19 19
26 26 26 26 25 24 24 24 24 24 24 24 23 23 23 22 22 22 22 21 21 20 20 20 21 20 19 19 19 20 20 19 19 19 19 19 19 19 19 19 19 20 21 21
28 29 28 28 27 26 26 26 26 26 26 26 25 25 24 24 23 23 23 23 22 21 21 22 22 21 21 20 20 20 20 20 20 20 20 20 20 20 20 20 21 21 22 22
29 29 28 28 27 27 26 26 27 27 27 26 26 26 25 25 24 24 24 24 23 23 22 23 22 22 22 21 21 20 21 21 21 22 22 22 22 22 22 22 22 23 23 24
28 29 29 28 27 27 27 27 28 28 28 28 27 27 26 25 24 24 24 24 23 24 24 23 23 23 23 23 22 22 23 23 23 24 24 24 23 24 24 24 24 25 25 26
Wind_Direction
265 275 283 295 301 310 333 346 344 347 352 357 1 6 10 9 3 3 5 4 7 9 13 8 8 3 354 346 340 339 341 343 338 331 326 311 298 294 300 296 288 286 289 288
261 265 274 289 306 317 332 339 341 343 344 344 354 360 1 3 1 1 360 357 355 356 2 1 356 349 341 337 332 328 331 330 328 322 318 313 305 297 298 292 286 283 284 281
260 257 270 287 296 304 317 321 330 331 336 335 339 353 352 356 358 358 359 356 354 352 353 349 343 338 332 328 324 319 319 319 319 319 319 314 306 300 298 288 280 281 282 274
262 260 264 273 282 287 292 302 314 319 322 321 330 348 345 351 351 352 354 353 353 349 346 341 337 332 329 328 320 316 317 313 308 311 314 310 304 302 299 291 281 280 285 276
264 262 268 268 271 282 290 289 297 303 306 310 315 327 338 342 342 343 345 347 348 347 341 335 332 326 320 321 322 320 321 314 303 303 308 307 310 308 300 291 280 272 275 274
260 266 272 273 275 282 283 282 290 298 300 301 305 312 329 335 336 334 333 336 338 339 338 334 330 325 320 319 319 321 321 314 306 303 300 296 302 306 298 288 280 273 268 269
261 267 273 272 270 272 273 276 286 293 296 299 305 310 327 326 325 326 327 327 327 327 331 328 324 323 322 320 320 322 320 314 309 306 301 295 296 301 298 290 282 275 269 268
262 265 267 270 268 269 269 273 279 287 294 299 300 307 321 318 318 319 324 326 323 322 325 324 323 320 318 315 315 318 320 316 312 308 305 298 295 297 295 290 282 274 266 269
264 268 265 263 262 265 269 272 275 280 288 291 293 301 307 313 315 315 321 323 319 321 320 320 320 318 317 315 315 317 317 314 311 305 301 296 293 294 292 288 279 272 267 270
262 267 263 259 257 260 266 270 274 277 283 286 291 298 304 310 313 315 315 315 315 318 320 320 319 320 319 314 311 311 310 308 305 304 301 293 290 287 284 282 276 270 270 267
259 263 260 258 256 258 262 265 268 274 279 284 287 293 297 301 300 304 303 303 306 313 318 316 314 315 316 312 306 304 304 305 305 305 300 292 287 282 274 271 268 269 267 270
258 261 259 256 257 259 260 262 266 270 276 281 285 289 291 291 291 295 297 296 298 303 309 309 307 309 307 305 301 300 301 300 302 303 297 289 286 283 275 266 265 271 268 266
256 259 258 255 256 259 258 260 264 267 271 276 280 286 287 288 287 291 294 294 295 297 300 303 302 301 301 300 298 298 298 295 296 296 292 286 284 286 283 268 265 267 266 263
254 258 260 259 259 259 260 260 263 268 271 276 278 282 283 283 283 289 291 291 288 290 295 299 297 296 297 296 294 294 294 291 291 290 287 283 283 285 285 273 266 264 264 263
254 258 260 261 259 258 258 261 265 268 271 274 277 278 281 282 283 286 286 285 286 286 290 294 293 292 294 293 294 294 293 290 288 287 283 280 281 283 282 274 265 264 265 264
255 258 260 261 261 262 260 259 263 267 270 272 274 277 280 280 282 283 282 283 284 284 287 290 290 290 291 291 292 294 292 289 287 285 280 280 281 279 279 274 267 264 264 264
255 258 259 259 260 262 262 261 262 267 269 273 277 280 282 281 282 284 282 281 280 282 285 286 287 290 292 291 291 292 292 290 287 286 282 279 277 277 277 274 268 264 263 265
255 255 256 258 257 257 261 263 266 268 271 274 276 278 283 286 286 284 284 283 282 283 285 286 287 289 292 293 292 292 292 291 289 287 281 279 278 277 277 275 271 268 267 267
253 255 256 256 256 257 257 262 267 273 275 276 278 281 283 283 285 286 285 284 282 283 285 285 286 288 290 294 293 292 290 290 289 287 282 282 280 278 276 274 272 269 268 268
252 254 256 257 256 257 257 260 265 269 271 275 279 280 282 282 282 284 284 285 285 284 283 284 284 287 288 290 290 290 290 291 290 287 285 282 280 278 277 275 272 269 269 268
250 251 255 259 259 258 259 261 264 267 273 277 278 279 280 282 283 282 283 283 283 283 283 282 283 285 286 286 285 287 288 288 288 288 288 285 282 280 278 276 274 271 270 268
249 252 255 258 259 262 263 263 265 269 271 274 275 277 278 280 281 282 282 283 282 281 282 281 281 282 282 283 283 284 286 286 287 287 287 285 282 280 279 277 276 275 274 272
248 251 255 258 260 262 263 265 266 268 270 272 273 274 275 277 280 281 282 282 282 279 280 279 278 279 280 281 283 283 284 285 285 285 285 282 281 280 279 276 276 276 277 276
248 251 255 258 259 262 264 266 268 270 271 271 272 273 272 274 275 276 278 280 280 277 278 278 278 278 279 281 282 282 281 283 284 284 284 282 280 280 280 276 276 276 276 275
247 250 253 256 258 261 263 267 269 271 271 271 271 271 270 271 272 272 274 276 275 273 274 276 279 279 279 279 280 281 281 283 283 284 283 282 280 280 279 278 277 276 275 275
251 252 255 257 260 262 263 266 268 270 270 270 270 270 270 271 271 271 273 274 274 273 273 275 277 278 278 279 280 281 282 282 282 282 282 281 280 280 278 277 277 277 276 276
Height
5892 5893 5891 5890 5890 5889 5888 5887 5886 5885 5884 5883 5882 5881 5880 5879 5878 5876 5875 5874 5873 5872 5871 5870 5869 5868 5867 5867 5866 5865 5864 5863 5863 5862 5861 5860 5860 5860 5859 5859 5858 5858 5857 5857
5892 5891 5890 5889 5888 5888 5887 5886 5885 5884 5883 5882 5881 5880 5879 5878 5877 5876 5875 5873 5872 5871 5870 5869 5868 5867 5866 5866 5865 5864 5863 5862 5861 5861 5860 5860 5859 5858 5858 5857 5857 5856 5856 5855
5890 5890 5889 5888 5888 5887 5886 5886 5884 5883 5882 5881 5880 5880 5879 5877 5876 5875 5874 5872 5871 5870 5869 5868 5867 5866 5865 5865 5864 5863 5862 5861 5860 5859 5859 5858 5858 5857 5856 5856 5855 5855 5855 5854
5888 5888 5888 5887 5886 5886 5885 5884 5883 5882 5881 5880 5880 5879 5878 5877 5875 5874 5873 5871 5870 5869 5868 5867 5866 5865 5864 5863 5862 5861 5860 5860 5859 5858 5857 5857 5856 5855 5855 5854 5854 5854 5853 5853
5886 5886 5886 5885 5885 5884 5884 5883 5882 5881 5880 5879 5878 5877 5878 5875 5874 5873 5872 5870 5869 5868 5867 5866 5865 5864 5863 5862 5861 5860 5859 5858 5857 5856 5856 5855 5854 5854 5853 5853 5852 5852 5852 5852
5884 5884 5883 5883 5882 5882 5882 5882 5881 5879 5879 5878 5877 5876 5876 5874 5872 5872 5870 5869 5868 5867 5865 5864 5863 5862 5861 5860 5859 5858 5857 5856 5855 5855 5854 5853 5853 5852 5851 5851 5851 5850 5851 5851
5882 5882 5881 5881 5880 5880 5880 5880 5879 5878 5877 5876 5875 5874 5874 5872 5870 5869 5868 5867 5866 5865 5864 5863 5862 5861 5860 5858 5857 5856 5855 5854 5853 5853 5852 5852 5851 5850 5850 5849 5849 5848 5849 5849
5878 5879 5879 5878 5878 5878 5878 5878 5878 5877 5875 5874 5873 5872 5872 5870 5868 5867 5865 5865 5864 5863 5862 5861 5860 5859 5858 5857 5856 5854 5853 5852 5852 5851 5850 5849 5849 5848 5848 5847 5847 5847 5847 5847
5876 5876 5876 5875 5875 5875 5875 5875 5875 5874 5873 5872 5871 5870 5870 5868 5866 5865 5863 5862 5862 5861 5860 5860 5859 5857 5856 5855 5854 5853 5852 5851 5850 5849 5848 5847 5846 5846 5845 5845 5845 5845 5845 5845
5872 5872 5872 5872 5872 5872 5872 5872 5872 5871 5870 5869 5869 5868 5868 5866 5865 5863 5862 5861 5861 5860 5859 5858 5857 5855 5854 5853 5852 5851 5850 5849 5848 5847 5846 5845 5844 5844 5843 5843 5843 5843 5843 5843
5868 5869 5870 5869 5869 5869 5869 5869 5868 5868 5867 5867 5866 5868 5865 5864 5863 5861 5860 5859 5859 5858 5857 5856 5855 5854 5853 5851 5850 5849 5848 5847 5845 5844 5843 5842 5842 5841 5841 5841 5840 5840 5840 5840
5864 5865 5865 5866 5866 5865 5866 5865 5865 5865 5865 5864 5863 5866 5862 5861 5860 5859 5858 5857 5856 5856 5855 5854 5853 5852 5850 5849 5848 5846 5845 5844 5843 5842 5841 5840 5840 5839 5839 5838 5838 5838 5838 5838
5860 5861 5862 5862 5864 5863 5862 5861 5861 5861 5861 5860 5860 5862 5859 5858 5857 5856 5855 5855 5854 5853 5852 5851 5850 5849 5848 5847 5845 5844 5843 5841 5840 5839 5839 5838 5837 5836 5836 5836 5835 5835 5835 5836
5856 5856 5858 5859 5858 5858 5858 5858 5857 5857 5856 5856 5856 5857 5856 5854 5853 5853 5852 5851 5851 5850 5849 5848 5847 5846 5845 5844 5842 5841 5840 5838 5837 5836 5836 5835 5834 5834 5833 5832 5832 5832 5833 5833
5851 5852 5852 5853 5853 5853 5853 5854 5854 5853 5853 5852 5852 5852 5852 5850 5850 5849 5848 5848 5847 5847 5846 5845 5844 5842 5841 5840 5839 5837 5836 5835 5834 5833 5832 5832 5831 5830 5829 5829 5829 5829 5829 5829
5846 5847 5847 5848 5848 5848 5848 5849 5849 5849 5848 5848 5848 5848 5847 5846 5845 5845 5844 5844 5843 5843 5842 5841 5840 5839 5837 5836 5835 5834 5832 5831 5830 5829 5829 5828 5827 5826 5826 5826 5825 5825 5825 5826
5840 5842 5842 5843 5843 5843 5844 5844 5844 5844 5844 5844 5843 5844 5843 5842 5841 5841 5840 5840 5839 5838 5837 5836 5835 5834 5833 5832 5831 5830 5828 5827 5826 5825 5824 5824 5823 5822 5822 5821 5821 5821 5821 5821
5835 5836 5837 5838 5839 5838 5842 5840 5840 5840 5840 5839 5839 5839 5838 5838 5837 5836 5836 5835 5834 5833 5833 5832 5830 5830 5828 5827 5826 5825 5824 5823 5822 5821 5820 5819 5819 5818 5817 5817 5816 5816 5817 5817
5830 5830 5831 5832 5832 5833 5836 5835 5834 5835 5835 5834 5834 5834 5833 5833 5832 5831 5830 5829 5829 5828 5828 5827 5825 5825 5824 5822 5821 5820 5819 5818 5817 5816 5815 5814 5813 5813 5812 5811 5811 5811 5812 5812
5823 5824 5825 5826 5826 5828 5831 5830 5829 5830 5829 5830 5829 5829 5828 5827 5827 5827 5825 5824 5823 5823 5822 5821 5820 5819 5819 5817 5816 5815 5814 5813 5812 5811 5810 5809 5808 5807 5807 5806 5806 5806 5806 5806
5817 5817 5818 5819 5819 5821 5824 5824 5824 5825 5825 5824 5823 5823 5822 5821 5821 5821 5819 5818 5818 5817 5817 5816 5815 5814 5813 5812 5811 5810 5809 5808 5807 5806 5805 5804 5803 5802 5801 5801 5800 5800 5800 5800
5810 5811 5812 5812 5813 5817 5817 5817 5818 5818 5817 5817 5817 5816 5815 5815 5814 5814 5813 5812 5811 5811 5810 5810 5809 5809 5808 5807 5806 5805 5804 5803 5801 5800 5799 5798 5797 5796 5796 5795 5795 5794 5794 5794
5803 5805 5805 5807 5809 5809 5809 5809 5810 5810 5810 5810 5809 5809 5809 5808 5807 5807 5806 5805 5804 5804 5803 5803 5803 5802 5802 5801 5800 5799 5798 5797 5796 5795 5793 5792 5791 5791 5790 5789 5789 5788 5788 5787
5795 5796 5797 5798 5800 5801 5801 5802 5802 5802 5802 5801 5801 5801 5801 5801 5800 5800 5799 5798 5797 5797 5796 5796 5796 5796 5795 5795 5794 5793 5792 5790 5789 5788 5787 5786 5785 5784 5783 5783 5782 5781 5781 5780
5787 5788 5789 5790 5792 5793 5793 5793 5793 5793 5793 5793 5793 5793 5793 5793 5792 5792 5792 5791 5790 5790 5789 5789 5789 5789 5788 5788 5787 5786 5785 5784 5783 5782 5781 5779 5778 5777 5776 5776 5775 5774 5774 5773
5779 5780 5781 5782 5783 5784 5785 5785 5785 5785 5784 5784 5784 5784 5784 5784 5784 5784 5784 5783 5783 5783 5782 5782 5782 5781 5781 5780 5780 5779 5778 5776 5775 5774 5773 5772 5771 5770 5769 5768 5767 5766 5766 5765